| time (UTC) | temp F | wind direction | speed MPH | gust MPH | rain 1hr in | rain 24hr in | rain mn in | humidity % | barometer mb |
| 20260901014025 | 74 | 113 | 4.0 | 10.0 | 0.00 | 0.00 | 0.00 | 59 | 1009.4 |
| 20260901013026 | 75 | 155 | 3.0 | 13.0 | 0.00 | 0.00 | 0.00 | 58 | 1009.3 |
| 20260901012024 | 76 | 149 | 3.0 | 9.0 | 0.00 | 0.00 | 0.00 | 56 | 1009.4 |
| 20260901011013 | 76 | 104 | 4.0 | 10.0 | 0.00 | 0.00 | 0.00 | 56 | 1009.4 |
| 20260901010005 | 77 | 111 | 4.0 | 10.0 | 0.00 | 0.00 | 0.00 | 55 | 1009.4 |
| 20260901005005 | 77 | 121 | 3.0 | 12.0 | 0.00 | 0.00 | 0.00 | 54 | 1009.4 |
| 20260901004005 | 78 | 165 | 3.0 | 7.0 | 0.00 | 0.00 | 0.00 | 54 | 1009.4 |
| 20260901003002 | 78 | 72 | 4.0 | 9.0 | 0.00 | 0.00 | 0.00 | 54 | 1009.5 |
| 20260901002000 | 78 | 84 | 3.0 | 10.0 | 0.00 | 0.00 | 0.00 | 53 | 1009.4 |
| 20260901000959 | 78 | 155 | 3.0 | 9.0 | 0.00 | 0.00 | 0.00 | 53 | 1009.4 |
| 20260831235957 | 78 | 157 | 3.0 | 11.0 | 0.00 | 0.00 | 0.00 | 53 | 1009.4 |
| 20260831234953 | 78 | 91 | 5.0 | 12.0 | 0.00 | 0.00 | 0.00 | 53 | 1009.6 |
| 20260831233953 | 78 | 126 | 3.0 | 10.0 | 0.00 | 0.00 | 0.00 | 53 | 1009.6 |
| 20260831233425 | 78 | 159 | 4.0 | 12.0 | 0.00 | 0.00 | 0.00 | 52 | 1009.6 |
| 20260831231951 | 78 | 181 | 3.0 | 9.0 | 0.00 | 0.00 | 0.00 | 54 | 1009.7 |
| 20260831230950 | 78 | 164 | 5.0 | 13.0 | 0.00 | 0.00 | 0.00 | 54 | 1009.7 |
| 20260831225948 | 78 | 100 | 4.0 | 10.0 | 0.00 | 0.00 | 0.00 | 54 | 1009.9 |
| 20260831224947 | 77 | 169 | 5.0 | 11.0 | 0.00 | 0.00 | 0.00 | 54 | 1009.9 |
| 20260831223947 | 77 | 164 | 5.0 | 11.0 | 0.00 | 0.00 | 0.00 | 55 | 1010.1 |
| 20260831222945 | 77 | 126 | 4.0 | 12.0 | 0.00 | 0.00 | 0.00 | 55 | 1010.3 |
| 20260831221943 | 76 | 146 | 4.0 | 10.0 | 0.00 | 0.00 | 0.00 | 55 | 1010.3 |
| 20260831220943 | 76 | 146 | 4.0 | 11.0 | 0.00 | 0.00 | 0.00 | 56 | 1010.5 |
| 20260831215941 | 76 | 126 | 5.0 | 14.0 | 0.00 | 0.00 | 0.00 | 56 | 1010.6 |
| 20260831214942 | 76 | 88 | 4.0 | 10.0 | 0.00 | 0.00 | 0.00 | 57 | 1010.7 |
| 20260831213937 | 75 | 117 | 5.0 | 13.0 | 0.00 | 0.00 | 0.00 | 58 | 1010.8 |
| 20260831212937 | 74 | 111 | 4.0 | 17.0 | 0.00 | 0.00 | 0.00 | 58 | 1010.9 |
| 20260831211937 | 74 | 130 | 5.0 | 13.0 | 0.00 | 0.00 | 0.00 | 58 | 1010.9 |
| 20260831210937 | 73 | 115 | 4.0 | 11.0 | 0.00 | 0.00 | 0.00 | 59 | 1011.1 |
| 20260831205937 | 74 | 92 | 3.0 | 10.0 | 0.00 | 0.00 | 0.00 | 59 | 1011.1 |
| 20260831204937 | 73 | 117 | 3.0 | 11.0 | 0.00 | 0.00 | 0.00 | 60 | 1011.2 |
| 20260831203937 | 72 | 121 | 4.0 | 10.0 | 0.00 | 0.00 | 0.00 | 61 | 1011.2 |
| 20260831202929 | 72 | 140 | 4.0 | 10.0 | 0.00 | 0.00 | 0.00 | 61 | 1011.3 |
| 20260831201927 | 71 | 259 | 4.0 | 11.0 | 0.00 | 0.00 | 0.00 | 62 | 1011.3 |
| 20260831200925 | 71 | 178 | 3.0 | 11.0 | 0.00 | 0.00 | 0.00 | 63 | 1011.4 |
| 20260831195925 | 70 | 164 | 3.0 | 11.0 | 0.00 | 0.00 | 0.00 | 64 | 1011.5 |
| 20260831194923 | 69 | 169 | 4.0 | 10.0 | 0.00 | 0.00 | 0.00 | 65 | 1011.7 |
| 20260831193921 | 69 | 154 | 4.0 | 10.0 | 0.00 | 0.00 | 0.00 | 65 | 1011.6 |
| 20260831192921 | 69 | 142 | 2.0 | 10.0 | 0.00 | 0.00 | 0.00 | 65 | 1011.7 |
| 20260831191919 | 68 | 228 | 3.0 | 10.0 | 0.00 | 0.00 | 0.00 | 67 | 1011.7 |
| 20260831190919 | 67 | 119 | 3.0 | 6.0 | 0.00 | 0.00 | 0.00 | 69 | 1011.8 |
| 20260831185919 | 66 | 163 | 4.0 | 10.0 | 0.00 | 0.00 | 0.00 | 70 | 1012.0 |
| 20260831184915 | 66 | 306 | 4.0 | 11.0 | 0.00 | 0.00 | 0.00 | 71 | 1012.1 |
| 20260831184348 | 65 | 112 | 3.0 | 9.0 | 0.00 | 0.00 | 0.00 | 72 | 1012.2 |
| 20260831183344 | 65 | 124 | 3.0 | 9.0 | 0.00 | 0.00 | 0.00 | 73 | 1012.2 |
| 20260831182352 | 64 | 192 | 3.0 | 11.0 | 0.00 | 0.00 | 0.00 | 74 | 1012.2 |
| 20260831180909 | 64 | 129 | 3.0 | 5.0 | 0.00 | 0.00 | 0.00 | 75 | 1012.1 |
| 20260831175907 | 63 | 179 | 4.0 | 8.0 | 0.00 | 0.00 | 0.00 | 76 | 1012.2 |
| 20260831174907 | 63 | 197 | 3.0 | 6.0 | 0.00 | 0.00 | 0.00 | 76 | 1012.2 |
| 20260831173905 | 62 | 127 | 2.0 | 6.0 | 0.00 | 0.00 | 0.00 | 78 | 1012.1 |
| 20260831172905 | 61 | 108 | 3.0 | 11.0 | 0.00 | 0.00 | 0.00 | 80 | 1012.1 |
| 20260831171903 | 60 | 134 | 2.0 | 7.0 | 0.00 | 0.00 | 0.00 | 83 | 1012.1 |
| 20260831170901 | 59 | 84 | 2.0 | 7.0 | 0.00 | 0.00 | 0.00 | 84 | 1012.0 |
| 20260831165901 | 57 | 85 | 3.0 | 6.0 | 0.00 | 0.00 | 0.00 | 87 | 1012.1 |
| 20260831164849 | 57 | 98 | 3.0 | 6.0 | 0.00 | 0.00 | 0.00 | 88 | 1012.0 |
| 20260831163837 | 56 | 119 | 1.0 | 5.0 | 0.00 | 0.00 | 0.00 | 89 | 1012.0 |
| 20260831162837 | 56 | 176 | 1.0 | 4.0 | 0.00 | 0.00 | 0.00 | 90 | 1012.0 |
| 20260831161837 | 56 | 189 | 2.0 | 4.0 | 0.00 | 0.00 | 0.00 | 90 | 1011.9 |
| 20260831161320 | 55 | 226 | 2.0 | 4.0 | 0.00 | 0.00 | 0.00 | 91 | 1011.8 |
| 20260831155832 | 55 | 126 | 0.0 | 3.0 | 0.00 | 0.00 | 0.00 | 92 | 1011.7 |
| 20260831154832 | 55 | 131 | 1.0 | 3.0 | 0.00 | 0.00 | 0.00 | 92 | 1011.8 |
| 20260831153832 | 55 | 96 | 1.0 | 5.0 | 0.00 | 0.00 | 0.00 | 93 | 1011.8 |
| 20260831152833 | 54 | 109 | 2.0 | 6.0 | 0.00 | 0.00 | 0.00 | 93 | 1011.7 |
| 20260831151754 | 54 | 88 | 1.0 | 4.0 | 0.00 | 0.00 | 0.00 | 94 | 1011.6 |
| 20260831151235 | 54 | 103 | 1.0 | 3.0 | 0.00 | 0.00 | 0.00 | 94 | 1011.6 |
| 20260831145745 | 54 | 77 | 1.0 | 3.0 | 0.00 | 0.00 | 0.00 | 94 | 1011.5 |
| 20260831144738 | 53 | 267 | 0.0 | 2.0 | 0.00 | 0.00 | 0.00 | 94 | 1011.4 |
| 20260831144212 | 53 | 250 | 0.0 | 2.0 | 0.00 | 0.00 | 0.00 | 94 | 1011.3 |
| 20260831143218 | 54 | 327 | 1.0 | 3.0 | 0.00 | 0.00 | 0.00 | 94 | 1011.0 |
| 20260831141730 | 54 | 193 | 0.0 | 0.0 | 0.00 | 0.00 | 0.00 | 93 | 1010.9 |
| 20260831140658 | 54 | 193 | 0.0 | 1.0 | 0.00 | 0.00 | 0.00 | 93 | 1010.9 |
| 20260831135651 | 54 | 193 | 0.0 | 2.0 | 0.00 | 0.00 | 0.00 | 93 | 1010.8 |
| 20260831135120 | 54 | 184 | 0.0 | 0.0 | 0.00 | 0.00 | 0.00 | 93 | 1010.8 |
| 20260831133619 | 54 | 322 | 0.0 | 0.0 | 0.00 | 0.00 | 0.00 | 93 | 1010.7 |
| 20260831132618 | 54 | 322 | 0.0 | 0.0 | 0.00 | 0.00 | 0.00 | 93 | 1010.6 |
| 20260831132034 | 54 | 322 | 0.0 | 1.0 | 0.00 | 0.00 | 0.00 | 93 | 1010.6 |
| 20260831130552 | 54 | 322 | 0.0 | 0.0 | 0.00 | 0.00 | 0.00 | 93 | 1010.7 |
| 20260831125550 | 54 | 322 | 0.0 | 1.0 | 0.00 | 0.00 | 0.00 | 92 | 1010.7 |
| 20260831124543 | 53 | 322 | 0.0 | 1.0 | 0.00 | 0.00 | 0.00 | 92 | 1010.6 |
| 20260831123541 | 53 | 322 | 1.0 | 2.0 | 0.00 | 0.00 | 0.00 | 91 | 1010.6 |
| 20260831122541 | 53 | 326 | 0.0 | 2.0 | 0.00 | 0.00 | 0.00 | 90 | 1010.7 |
| 20260831122007 | 53 | 326 | 0.0 | 1.0 | 0.00 | 0.00 | 0.00 | 91 | 1010.8 |
| 20260831120502 | 53 | 326 | 0.0 | 2.0 | 0.00 | 0.00 | 0.00 | 91 | 1010.8 |
| 20260831115502 | 53 | 334 | 0.0 | 0.0 | 0.00 | 0.00 | 0.00 | 91 | 1010.7 |
| 20260831114445 | 52 | 112 | 0.0 | 0.0 | 0.00 | 0.00 | 0.00 | 92 | 1010.7 |
| 20260831113915 | 52 | 112 | 0.0 | 0.0 | 0.00 | 0.00 | 0.00 | 92 | 1010.6 |
| 20260831112426 | 52 | 112 | 0.0 | 0.0 | 0.00 | 0.00 | 0.00 | 91 | 1010.5 |
| 20260831111424 | 52 | 112 | 0.0 | 0.0 | 0.00 | 0.00 | 0.00 | 90 | 1010.3 |
| 20260831110402 | 52 | 112 | 0.0 | 0.0 | 0.00 | 0.00 | 0.00 | 91 | 1010.3 |
| 20260831105830 | 52 | 112 | 0.0 | 0.0 | 0.00 | 0.00 | 0.00 | 91 | 1010.2 |
| 20260831104336 | 52 | 112 | 0.0 | 0.0 | 0.00 | 0.00 | 0.00 | 91 | 1010.2 |
| 20260831103336 | 52 | 112 | 0.0 | 0.0 | 0.00 | 0.00 | 0.00 | 90 | 1010.1 |
| 20260831102336 | 52 | 112 | 0.0 | 0.0 | 0.00 | 0.00 | 0.00 | 89 | 1010.1 |
| 20260831101328 | 52 | 112 | 0.0 | 0.0 | 0.00 | 0.00 | 0.00 | 89 | 1010.0 |
| 20260831100327 | 52 | 112 | 0.0 | 0.0 | 0.00 | 0.00 | 0.00 | 89 | 1010.0 |
| 20260831095323 | 53 | 112 | 0.0 | 0.0 | 0.00 | 0.00 | 0.00 | 89 | 1010.0 |
| 20260831094323 | 53 | 112 | 0.0 | 0.0 | 0.00 | 0.00 | 0.00 | 89 | 1010.0 |
| 20260831093322 | 53 | 112 | 0.0 | 0.0 | 0.00 | 0.00 | 0.00 | 89 | 1010.1 |
| 20260831092306 | 54 | 112 | 0.0 | 0.0 | 0.00 | 0.00 | 0.00 | 88 | 1010.0 |
| 20260831091252 | 54 | 95 | 0.0 | 0.0 | 0.00 | 0.00 | 0.00 | 87 | 1010.1 |
| 20260831090252 | 54 | 95 | 0.0 | 1.0 | 0.00 | 0.00 | 0.00 | 87 | 1010.1 |
| 20260831085248 | 55 | 159 | 0.0 | 1.0 | 0.00 | 0.00 | 0.00 | 87 | 1010.1 |
| 20260831084232 | 55 | 169 | 0.0 | 0.0 | 0.00 | 0.00 | 0.00 | 85 | 1010.0 |
| 20260831083701 | 55 | 169 | 0.0 | 0.0 | 0.00 | 0.00 | 0.00 | 85 | 1010.2 |
| 20260831082704 | 55 | 169 | 0.0 | 0.0 | 0.00 | 0.00 | 0.00 | 84 | 1010.2 |
| 20260831081216 | 56 | 169 | 0.0 | 1.0 | 0.00 | 0.00 | 0.00 | 84 | 1010.1 |
| 20260831080214 | 56 | 129 | 0.0 | 0.0 | 0.00 | 0.00 | 0.00 | 83 | 1010.3 |
| 20260831075201 | 57 | 135 | 0.0 | 1.0 | 0.00 | 0.00 | 0.00 | 82 | 1010.3 |
| 20260831074159 | 57 | 137 | 0.0 | 2.0 | 0.00 | 0.00 | 0.00 | 82 | 1010.4 |
| 20260831073154 | 58 | 132 | 0.0 | 0.0 | 0.00 | 0.00 | 0.00 | 81 | 1010.4 |
| 20260831072610 | 58 | 140 | 0.0 | 2.0 | 0.00 | 0.00 | 0.00 | 80 | 1010.2 |
| 20260831071613 | 58 | 111 | 0.0 | 2.0 | 0.00 | 0.00 | 0.00 | 79 | 1010.1 |
| 20260831070115 | 59 | 127 | 0.0 | 1.0 | 0.00 | 0.00 | 0.00 | 79 | 1010.2 |
| 20260831065113 | 59 | 124 | 0.0 | 2.0 | 0.00 | 0.00 | 0.00 | 77 | 1010.2 |
| 20260831064111 | 60 | 103 | 0.0 | 2.0 | 0.00 | 0.00 | 0.00 | 77 | 1010.2 |
| 20260831063105 | 60 | 177 | 0.0 | 3.0 | 0.00 | 0.00 | 0.00 | 76 | 1010.2 |
| 20260831062101 | 61 | 121 | 0.0 | 1.0 | 0.00 | 0.00 | 0.00 | 74 | 1010.2 |
| 20260831061057 | 62 | 175 | 0.0 | 3.0 | 0.00 | 0.00 | 0.00 | 73 | 1010.2 |
| 20260831060053 | 63 | 159 | 0.0 | 2.0 | 0.00 | 0.00 | 0.00 | 71 | 1010.2 |
| 20260831055052 | 63 | 192 | 1.0 | 3.0 | 0.00 | 0.00 | 0.00 | 70 | 1010.1 |
| 20260831054049 | 64 | 171 | 1.0 | 5.0 | 0.00 | 0.00 | 0.00 | 69 | 1010.0 |
| 20260831053046 | 64 | 122 | 1.0 | 6.0 | 0.00 | 0.00 | 0.00 | 68 | 1010.1 |
| 20260831052040 | 65 | 151 | 2.0 | 6.0 | 0.00 | 0.00 | 0.00 | 68 | 1010.1 |
| 20260831051040 | 65 | 109 | 0.0 | 2.0 | 0.00 | 0.00 | 0.00 | 67 | 1010.1 |
| 20260831050020 | 66 | 149 | 0.0 | 2.0 | 0.00 | 0.00 | 0.00 | 66 | 1010.1 |
| 20260831045504 | 67 | 119 | 0.0 | 2.0 | 0.00 | 0.00 | 0.00 | 65 | 1010.0 |
| 20260831043946 | 67 | 111 | 0.0 | 1.0 | 0.00 | 0.00 | 0.00 | 63 | 1010.0 |
| 20260831043414 | 68 | 111 | 0.0 | 2.0 | 0.00 | 0.00 | 0.00 | 62 | 1010.0 |
| 20260831041939 | 69 | 183 | 0.0 | 0.0 | 0.00 | 0.00 | 0.00 | 60 | 1009.9 |
| 20260831040928 | 70 | 198 | 1.0 | 3.0 | 0.00 | 0.00 | 0.00 | 58 | 1009.8 |
| 20260831035858 | 71 | 163 | 1.0 | 3.0 | 0.00 | 0.00 | 0.00 | 57 | 1009.7 |
| 20260831034847 | 72 | 144 | 0.0 | 2.0 | 0.00 | 0.00 | 0.00 | 55 | 1009.6 |
| 20260831033834 | 73 | 97 | 1.0 | 3.0 | 0.00 | 0.00 | 0.00 | 54 | 1009.5 |
| 20260831032834 | 74 | 117 | 0.0 | 3.0 | 0.00 | 0.00 | 0.00 | 53 | 1009.4 |
| 20260831032306 | 74 | 113 | 2.0 | 6.0 | 0.00 | 0.00 | 0.00 | 52 | 1009.3 |
| 20260831030825 | 75 | 115 | 1.0 | 4.0 | 0.00 | 0.00 | 0.00 | 51 | 1009.2 |
| 20260831025825 | 76 | 142 | 1.0 | 4.0 | 0.00 | 0.00 | 0.00 | 50 | 1009.3 |
| 20260831025306 | 77 | 180 | 1.0 | 5.0 | 0.00 | 0.00 | 0.00 | 48 | 1009.2 |
| 20260831024253 | 78 | 155 | 1.0 | 5.0 | 0.00 | 0.00 | 0.00 | 47 | 1009.2 |
| 20260831022815 | 79 | 170 | 2.0 | 5.0 | 0.00 | 0.00 | 0.00 | 45 | 1009.1 |
| 20260831021813 | 80 | 161 | 2.0 | 9.0 | 0.00 | 0.00 | 0.00 | 44 | 1009.1 |
| 20260831020813 | 81 | 143 | 3.0 | 9.0 | 0.00 | 0.00 | 0.00 | 43 | 1009.2 |
| 20260831015811 | 82 | 148 | 2.0 | 6.0 | 0.00 | 0.00 | 0.00 | 43 | 1009.2 |
| 20260831014811 | 83 | 103 | 3.0 | 9.0 | 0.00 | 0.00 | 0.00 | 42 | 1009.2 |